042  
ASUS43 KDTX 190210  
RWRMI  
MICHIGAN HOURLY REGIONAL WEATHER ROUNDUP  
NATIONAL WEATHER SERVICE DETROIT/PONTIAC MI  
ISSUED BY NATIONAL WEATHER SERVICE GRAND RAPIDS MI  
900 PM EST FRI JAN 18 2019  
 
NOTE: "FAIR" INDICATES FEW OR NO CLOUDS BELOW 12,000 FEET WITH NO  
SIGNIFICANT WEATHER AND/OR TO VISIBILITY
.  
 
MIZ047>049-052>055-059>063-066>070-074>076-081>083-190300-  
SOUTHEAST LOWER MICHIGAN  
 
CITY SKY/WX TMP DP RH WIND PRES REMARKS
 
ADRIAN CLOUDY 28 21 75 E8 30.20S WCI 20  
ALMA CLOUDY 24 8 49 NE6 30.22S WCI 17  
ANN ARBOR CLOUDY 27 17 66 N6 30.20S WCI 20  
BAD AXE CLOUDY 22 16 78 N12G20 30.23R WCI 11  
DETROIT CITY CLOUDY 27 15 61 N8 30.22S WCI 19  
DETROIT CLOUDY 27 16 63 N7 30.22S WCI 19  
FLINT CLOUDY 26 16 65 N3 30.22R  
GROSSE ILE CLOUDY 28 20 73 NE5 30.21S WCI 22  
HILLSDALE LGT SNOW 27 22 83 NE6 30.15F WCI 20  
HOWELL CLOUDY 25 18 74 CALM 30.20S  
 
CITY SKY/WX TMP DP RH WIND PRES REMARKS
 
JACKSON CLOUDY 27 19 72 NE8 30.18S WCI 19  
LANSING CLOUDY 25 18 74 E5 30.20F WCI 19  
MASON CLOUDY 26 19 74 CALM 30.20S  
MONROE MOCLDY 28 20 71 CALM 30.20F  
MT. CLEMENS CLOUDY 26 18 71 N3 30.21R  
PONTIAC CLOUDY 25 17 72 CALM 30.19R  
PORT HOPE N/A 23 16 74 N21G26 30.24R WCI 8  
PORT HURON CLOUDY 25 16 68 CALM 30.23R  
TRI CITIES CLOUDY 24 13 62 N13 30.23F WCI 12  
YPSILANTI CLOUDY 29 18 63 NE7 30.22R WCI 22  

 
MIZ043>046-050>051-056>058-064>065-071>073-077>080-190300-  
SOUTHWEST LOWER MICHIGAN  
 
CITY SKY/WX TMP DP RH WIND PRES REMARKS
 
BATTLE CREEK LGT SNOW 26 19 74 E7 30.17F WCI 18  
BENTON HARBOR LGT SNOW 26 22 84 NE8 30.15F VSB 3/4 WCI 18  
BIG RAPIDS CLOUDY 21 11 66 NE8 30.20R WCI 11  
COLDWATER LGT SNOW 27 26 96 NE7 30.16F WCI 20  
HOLLAND CLOUDY 27 14 58 NE8 30.18F WCI 19  
GRAND RAPIDS CLOUDY 26 14 60 NE5 30.19S WCI 20  
KALAMAZOO LGT SNOW 25 21 85 E6 30.17F FOG WCI 18  
MARSHALL CLOUDY 27 19 71 E6 30.17F WCI 21  
MOUNT PLEASANT CLOUDY 23 10 59 N8 30.22R WCI 13  
MUSKEGON CLOUDY 25 11 55 NE7 30.20F WCI 17  
STURGIS LGT SNOW 28 25 89 E7 30.15F WCI 20  

 
MIZ016>042-190300-  
NORTHERN LOWER MICHIGAN  
 
CITY SKY/WX TMP DP RH WIND PRES REMARKS
 
ALPENA CLOUDY 11 4 73 N14 30.31R WCI -5  
BEAVER ISLAND CLOUDY 9 -1 63 NE7 30.33R WCI -2  
BELLAIRE CLOUDY 13 2 63 NE7 30.32R WCI 3  
CADILLAC CLOUDY 14 3 62 NE7 30.20R WCI 4  
CHARLEVOIX CLOUDY 12 3 66 NE8G17 30.34R WCI 1  
GAYLORD CLOUDY 6 0 76 NE8 30.24R WCI -7  
HOUGHTON LAKE CLOUDY 14 4 64 NE12 30.23S WCI 0  
MANISTEE CLOUDY 17 9 70 NE13 30.26R WCI 4  
OSCODA FAIR 14 6 70 N9 30.28S WCI 2  
PELLSTON FAIR 7 -2 66 N6 30.33R WCI -3  
TRAVERSE CITY FLURRIES 16 6 65 NE10 30.27S WCI 4  
LUDINGTON CLOUDY 20 9 62 NE9 30.24R WCI 9  

 
MIZ007>008-015-190300-  
EASTERN UPPER MICHIGAN  
 
CITY SKY/WX TMP DP RH WIND PRES REMARKS
 
KINROSS FAIR -3 -9 75 E5 30.33R WCI -13  
MACKINAC ISLAN MOCLDY 7 1 76 NE12 30.32S HAZE WCI -9  
NEWBERRY LGT SNOW 5 3 91 CALM 30.31R  
S. S. MARIE FAIR 2 -10 57 NE5 30.33R WCI -8  

 
MIZ004>006-011>014-085-190300-  
CENTRAL UPPER MICHIGAN  
 
CITY SKY/WX TMP DP RH WIND PRES REMARKS
 
MANISTIQUE CLOUDY 8 0 71 CALM 30.33S  
ESCANABA MOCLDY 6 -3 66 NW6 30.36R WCI -4  
MENOMINEE CLOUDY 9 -2 61 NE13 30.35R WCI -7  
SAWYER-GWINN FLURRIES 3 -2 78 NW10 30.29R WCI -12  

 
MIZ001>003-009>011-084-190300-  
WESTERN UPPER MICHIGAN  
 
CITY SKY/WX TMP DP RH WIND PRES REMARKS
 
IRON MOUNTAIN FAIR 3 -6 66 N10 30.30R WCI -12  
HOUGHTON LGT SNOW 1 -6 72 S5 30.35R WCI -9  
COPPER HARBOR N/A 8 2 76 NE14G25 30.38R WCI -8  

 
 
ABBREVIATIONS USED IN REMARKS  
TC - TEMPERATURE IN CELSIUS  
WCI - WIND CHILL INDEX  
HX - HEAT INDEX  
VSB - VISIBILITY  
 
 
 
CLICK HERE TO GO TO PREVIOUS BULLETINS.

The Nexlab MI Page Main Text Page